RA3912 BIKF-BIKF

Flight info

Callsign RA3912
Flight time N/A
Altitude 4000
Route TUNLI STAY1/0030 DCT
Aircraft YK18/L-VGD/A

Departure

Time 2026-04-28 20:54
Airport Keflavik International Airport (BIKF)

Arrival

Time N/A
Airport Keflavik International Airport (BIKF)
Time Latitude Longitude Altitude Speed Heading
2026-04-28 20:37 63.98195 -22.58828 169 ft 0 kts
2026-04-28 20:41 63.98206 -22.58878 169 ft 8 kts 259°
2026-04-28 20:42 63.98203 -22.59006 170 ft 8 kts 273°
2026-04-28 20:42 63.98231 -22.59076 172 ft 7 kts 343°
2026-04-28 20:42 63.98276 -22.59116 172 ft 8 kts 337°
2026-04-28 20:42 63.98355 -22.59179 172 ft 16 kts 341°
2026-04-28 20:43 63.98462 -22.59274 171 ft 17 kts 356°
2026-04-28 20:43 63.98568 -22.59288 173 ft 15 kts
2026-04-28 20:43 63.98692 -22.59300 168 ft 20 kts 356°
2026-04-28 20:43 63.98825 -22.59365 167 ft 19 kts 343°
2026-04-28 20:44 63.98927 -22.59483 172 ft 14 kts 313°
2026-04-28 20:44 63.98993 -22.59640 171 ft 15 kts 320°
2026-04-28 20:44 63.99070 -22.59813 168 ft 17 kts 312°
2026-04-28 20:44 63.99160 -22.60025 168 ft 14 kts 300°
2026-04-28 20:45 63.99167 -22.60059 168 ft 0 kts 278°
2026-04-28 20:45 63.99167 -22.60060 168 ft 0 kts 278°
2026-04-28 20:48 63.99164 -22.60065 168 ft 0 kts 187°
2026-04-28 20:48 63.99163 -22.60065 168 ft 3 kts 188°
2026-04-28 20:48 63.99160 -22.60067 168 ft 0 kts 192°
2026-04-28 20:50 63.99158 -22.60075 168 ft 8 kts 282°
2026-04-28 20:50 63.99163 -22.60474 169 ft 28 kts 242°
2026-04-28 20:50 63.99084 -22.60538 169 ft 0 kts 180°
2026-04-28 20:54 63.98879 -22.60539 168 ft 73 kts 181°
2026-04-28 20:54 63.98316 -22.60442 628 ft 79 kts 179°
2026-04-28 20:54 63.97713 -22.60336 1025 ft 82 kts 184°
2026-04-28 20:54 63.97228 -22.59805 1452 ft 97 kts 133°
2026-04-28 20:55 63.97248 -22.58127 1422 ft 104 kts 102°
2026-04-28 20:55 63.97206 -22.56606 1328 ft 104 kts 99°
2026-04-28 20:55 63.97290 -22.54939 1268 ft 106 kts 98°
2026-04-28 20:55 63.97349 -22.53241 1184 ft 109 kts 97°
2026-04-28 20:56 63.97348 -22.51572 1134 ft 101 kts 110°
2026-04-28 20:56 63.97305 -22.49921 1009 ft 109 kts 99°
2026-04-28 20:56 63.97406 -22.48184 914 ft 110 kts 91°
2026-04-28 20:56 63.97565 -22.46507 725 ft 108 kts 94°
2026-04-28 20:57 63.97690 -22.44792 638 ft 110 kts 95°
2026-04-28 20:57 63.97764 -22.43082 621 ft 107 kts 98°
2026-04-28 20:57 63.97818 -22.41387 590 ft 109 kts 98°
2026-04-28 20:57 63.97901 -22.39688 571 ft 109 kts 91°
2026-04-28 20:58 63.98041 -22.37981 534 ft 108 kts 89°
2026-04-28 20:58 63.98269 -22.36302 469 ft 113 kts 79°
2026-04-28 20:58 63.98539 -22.34619 417 ft 113 kts 78°
2026-04-28 20:58 63.98801 -22.32944 388 ft 112 kts 78°
2026-04-28 20:59 63.99122 -22.31306 311 ft 118 kts 62°
2026-04-28 20:59 63.99633 -22.29917 368 ft 117 kts 65°
2026-04-28 20:59 64.00091 -22.28371 757 ft 127 kts 59°
2026-04-28 20:59 64.00667 -22.26735 1103 ft 134 kts 57°
2026-04-28 21:00 64.01252 -22.24965 1336 ft 143 kts 65°
2026-04-28 21:00 64.01788 -22.23066 1615 ft 141 kts 64°
2026-04-28 21:00 64.02242 -22.21046 1782 ft 142 kts 79°
2026-04-28 21:00 64.02514 -22.18841 1233 ft 157 kts 90°
2026-04-28 21:01 64.03067 -22.16704 1366 ft 152 kts 64°
2026-04-28 21:01 64.03606 -22.14625 1370 ft 157 kts 66°
2026-04-28 21:01 64.04148 -22.12438 1252 ft 161 kts 57°
2026-04-28 21:01 64.04824 -22.10495 1390 ft 152 kts 50°
2026-04-28 21:02 64.05542 -22.08705 1464 ft 153 kts 57°
2026-04-28 21:02 64.05520 -22.06682 1235 ft 130 kts 108°
2026-04-28 21:02 64.05666 -22.06439 1609 ft 82 kts 87°
2026-04-28 21:02 64.06045 -22.04454 1366 ft 140 kts 23°
2026-04-28 21:03 64.06658 -22.02899 1151 ft 134 kts 50°
2026-04-28 21:03 64.06771 -22.02609 1272 ft 138 kts
2026-04-28 21:03 64.07086 -22.01642 1055 ft 136 kts 326°
2026-04-28 21:03 64.07935 -22.01796 1168 ft 144 kts 37°
2026-04-28 21:04 64.08561 -22.00208 1192 ft 138 kts 80°
2026-04-28 21:04 64.09066 -21.98547 1354 ft 129 kts 23°
2026-04-28 21:04 64.10004 -21.97740 1262 ft 123 kts 318°
2026-04-28 21:04 64.09856 -21.98244 944 ft 87 kts 303°
2026-04-28 21:05 64.10073 -21.97839 867 ft 76 kts 147°
2026-04-28 21:05 64.09829 -21.96255 415 ft 135 kts 59°
2026-04-28 21:05 64.10627 -21.95239 174 ft 148 kts 23°
2026-04-28 21:05 64.11688 -21.94889 85 ft 160 kts
2026-04-28 21:06 64.12745 -21.94602 328 ft 152 kts 22°
2026-04-28 21:06 64.13490 -21.93011 453 ft 148 kts 72°
2026-04-28 21:06 64.13534 -21.91548 906 ft 62 kts 210°
2026-04-28 21:06 64.13168 -21.92961 528 ft 128 kts 218°
2026-04-28 21:07 64.12432 -21.94234 685 ft 110 kts 207°
2026-04-28 21:07 64.11868 -21.94830 1430 ft 84 kts 202°
2026-04-28 21:07 64.11355 -21.95275 1947 ft 80 kts 195°
2026-04-28 21:07 64.10801 -21.95324 2412 ft 80 kts 172°
2026-04-28 21:08 64.10311 -21.94599 2848 ft 81 kts 158°
2026-04-28 21:08 64.09969 -21.93477 3205 ft 104 kts 119°
2026-04-28 21:08 64.09893 -21.91964 3781 ft 95 kts 96°
2026-04-28 21:08 64.09912 -21.90190 3947 ft 105 kts 125°
2026-04-28 21:09 64.09720 -21.88660 4347 ft 108 kts 107°
2026-04-28 21:09 64.09860 -21.86886 4683 ft 120 kts 76°
2026-04-28 21:09 64.10242 -21.85214 4991 ft 127 kts 62°
2026-04-28 21:09 64.10192 -21.83697 4707 ft 71 kts 131°
2026-04-28 21:10 64.10093 -21.83008 4002 ft 45 kts 147°
2026-04-28 21:10 64.10603 -21.82263 2942 ft 126 kts 336°
2026-04-28 21:10 64.11375 -21.82942 2359 ft 110 kts 321°
2026-04-28 21:10 64.12099 -21.84109 1985 ft 150 kts 312°
2026-04-28 21:11 64.12830 -21.85923 1775 ft 160 kts 300°
2026-04-28 21:11 64.13451 -21.88092 1509 ft 165 kts 295°
2026-04-28 21:11 64.13791 -21.90358 1178 ft 126 kts 263°
2026-04-28 21:11 64.13493 -21.91984 715 ft 128 kts 227°
2026-04-28 21:12 64.12715 -21.93436 54 ft 158 kts 209°
2026-04-28 21:12 64.12810 -21.95097 232 ft 149 kts 311°
2026-04-28 21:12 64.13298 -21.94774 247 ft 137 kts 139°
2026-04-28 21:12 64.12473 -21.93613 146 ft 136 kts 169°
2026-04-28 21:13 64.12433 -21.93366 508 ft 118 kts 125°
2026-04-28 21:13 64.11839 -21.92788 506 ft 99 kts 255°
2026-04-28 21:13 64.12338 -21.93663 27 ft 89 kts 354°
2026-04-28 21:13 64.12738 -21.93710 37 ft 33 kts 347°
2026-04-28 21:14 64.12853 -21.93674 41 ft 13 kts 83°
2026-04-28 21:14 64.12883 -21.93513 41 ft 12 kts
2026-04-28 21:14 64.12970 -21.93566 43 ft 14 kts
2026-04-28 21:14 64.13007 -21.93469 43 ft 8 kts 89°
2026-04-28 21:15 64.13027 -21.93443 43 ft 0 kts 354°
2026-04-28 21:15 64.13030 -21.93444 43 ft 0 kts 343°